TimeEST,TemperatureF,Dew PointF,Humidity,Sea Level PressureIn,VisibilityMPH,Wind Direction,Wind SpeedMPH,Gust SpeedMPH,PrecipitationIn,Events,Conditions,WindDirDegrees,DateUTC
12:54 AM,21.9,19.0,89,30.14,10.0,Calm,Calm,-,N/A,,Clear,0,2013-03-04 05:54:00
1:54 AM,1.0,-9999,N/A,30.16,9.0,SE,3.5,-,N/A,,Clear,130,2013-03-04 06:54:00
2:54 AM,1.0,-9999,N/A,30.17,7.0,South,3.5,-,N/A,,Clear,180,2013-03-04 07:54:00
3:54 AM,-9999,-9999,N/A,30.12,10.0,SE,4.6,-,N/A,,Clear,130,2013-03-04 08:54:00
4:54 AM,-9999,-9999,N/A,30.13,8.0,SE,3.5,-,N/A,,Clear,140,2013-03-04 09:54:00
5:54 AM,-9999,-9999,N/A,30.14,10.0,SSE,5.8,-,N/A,,Clear,150,2013-03-04 10:54:00
6:54 AM,-9999,-9999,N/A,30.15,10.0,SE,5.8,-,N/A,,Clear,140,2013-03-04 11:54:00
7:54 AM,-9999,-9999,N/A,30.15,10.0,SE,6.9,-,N/A,,Clear,140,2013-03-04 12:54:00
8:54 AM,1.0,1.0,100,30.20,10.0,ESE,8.1,-,N/A,,Clear,120,2013-03-04 13:54:00
9:54 AM,1.0,-9999,N/A,30.20,10.0,SSE,9.2,-,N/A,,Clear,160,2013-03-04 14:54:00
10:54 AM,34.0,19.9,56,30.17,10.0,SE,8.1,-,N/A,,Clear,130,2013-03-04 15:54:00
11:54 AM,37.9,19.0,47,30.16,10.0,SE,8.1,-,N/A,,Clear,140,2013-03-04 16:54:00
12:54 PM,41.0,19.9,43,30.12,10.0,SSE,6.9,-,N/A,,Clear,150,2013-03-04 17:54:00
1:54 PM,42.1,19.0,40,30.10,10.0,SE,6.9,-,N/A,,Scattered Clouds,130,2013-03-04 18:54:00
2:54 PM,44.1,19.9,38,30.08,10.0,SSE,5.8,-,N/A,,Overcast,150,2013-03-04 19:54:00
3:54 PM,44.1,21.0,40,30.02,10.0,SSE,9.2,-,N/A,,Overcast,160,2013-03-04 20:54:00
4:54 PM,43.0,21.0,42,30.01,10.0,SE,8.1,-,N/A,,Overcast,130,2013-03-04 21:54:00
5:54 PM,43.0,21.9,43,30.00,10.0,East,8.1,-,N/A,,Overcast,100,2013-03-04 22:54:00
6:54 PM,42.1,21.9,45,29.99,10.0,ESE,8.1,-,0.00,,Mostly Cloudy,110,2013-03-04 23:54:00
7:54 PM,42.1,21.9,45,29.97,10.0,ESE,10.4,-,N/A,,Overcast,110,2013-03-05 00:54:00
8:54 PM,42.1,21.9,45,30.02,10.0,ESE,8.1,-,N/A,,Overcast,110,2013-03-05 01:54:00
9:54 PM,41.0,23.0,49,30.04,10.0,ESE,6.9,-,N/A,,Overcast,110,2013-03-05 02:54:00
10:54 PM,41.0,24.1,51,30.01,10.0,ESE,6.9,-,N/A,,Overcast,120,2013-03-05 03:54:00
11:54 PM,41.0,24.1,51,29.98,10.0,ESE,10.4,-,N/A,,Overcast,120,2013-03-05 04:54:00